Location: Cointrin
(46.2167°N, 6.1167°E)
Time: 10:41:40
(UTC+00:00)

AO-85 - Pass Details

Date: 16 December 2023
Orbit: 516 x 753 km, 64.8° (Epoch: 04 January)

Event Time Altitude Azimuth Distance (km) Brightness Sun altitude
Rises 18:53:16 0° 308° (NW) 2,946 ? -30.6°
Reaches altitude 10° 18:56:14 10° 287° (WNW) 2,077 ? -31.1°
Maximum altitude 18:59:10 17° 249° (WSW) 1,718 ? -31.6°
Drops below altitude 10° 19:02:12 10° 211° (SSW) 2,148 ? -32.1°
Sets 19:05:21 0° 191° (S) 3,096 ? -32.7°
